EW6754 Caguas PR US current weather conditions

sailwx.info

Wind from 129 at 6 knots gusting 11

Air temperature 32.8° C
Dewpoint 23.1° C

Last reported at 2020-Aug-13 17:01 UTC.
Time now 2020-Aug-13 18:10 UTC

Location: N 18°13' W 066°03'.
View on Google Maps.

See reports from other nearby stations

  
Tides and Currents Weather Stations Pressure Air Temp Water Temp Dewpoint Dewpoint Depression Visibility Wind Speed Wind Dir Waves Ship Positions
date/time (UTC)wind fromknots sea level pressurealtimeterstation pressurevisibilityair tempwater tempwave heightnotes
2020-Aug-13 17:01 129 6 gusting 11 32.8
2020-Aug-13 16:47 158 5 gusting 12 33.3
2020-Aug-13 16:31 129 1 gusting 9 32.8
2020-Aug-13 16:02 149 5 gusting 8 32.8
2020-Aug-13 15:46 110 3 gusting 9 32.8
2020-Aug-13 15:31 181 3 gusting 7 32.2
2020-Aug-13 15:15 171 2 gusting 7 31.7
2020-Aug-13 15:01 174 3 gusting 8 31.7
2020-Aug-13 14:46 143 4 gusting 9 31.7
2020-Aug-13 14:31 119 3 gusting 6 31.1
2020-Aug-13 14:15 098 3 gusting 9 31.7
2020-Aug-13 14:01 148 0 gusting 6 31.1
2020-Aug-13 13:45 195 2 gusting 6 30.6
2020-Aug-13 13:30 158 3 gusting 7 30.6
2020-Aug-13 13:15 132 1 gusting 6 30.0
2020-Aug-13 13:00 123 1 gusting 6 29.4
2020-Aug-13 12:45 109 28.9
2020-Aug-13 12:30 130 28.9
2020-Aug-13 12:15 081 28.9
2020-Aug-13 12:00 135 28.9
2020-Aug-13 11:45 117 28.9
2020-Aug-13 11:30 117 26.7
2020-Aug-13 11:15 117 26.7
2020-Aug-13 11:00 117 26.1
2020-Aug-13 10:45 117 25.0
2020-Aug-13 10:31 117 24.4
2020-Aug-13 10:16 117 24.4
2020-Aug-13 10:01 117 24.4
2020-Aug-13 09:46 117 24.4
2020-Aug-13 09:31 117 24.4
2020-Aug-13 09:17 117 24.4
2020-Aug-13 09:01 117 25.0
2020-Aug-13 08:46 117 25.0
2020-Aug-13 08:31 117 25.0
2020-Aug-13 08:15 117 25.0
2020-Aug-13 08:01 117 25.6
2020-Aug-13 07:47 117 25.6
2020-Aug-13 07:31 117 26.1
2020-Aug-13 07:16 117 26.1
2020-Aug-13 07:01 126 26.1
2020-Aug-13 06:46 112 26.1
2020-Aug-13 06:30 322 26.1
2020-Aug-13 06:15 124 26.1
2020-Aug-13 06:00 124 26.1
2020-Aug-13 05:46 124 26.1
2020-Aug-13 05:30 125 26.1
2020-Aug-13 05:15 125 26.7
2020-Aug-13 05:00 125 26.7
2020-Aug-13 04:45 125 26.7
2020-Aug-13 04:30 153 26.7
2020-Aug-13 04:15 136 26.7
2020-Aug-13 04:02 136 26.7
2020-Aug-13 03:47 136 26.7
2020-Aug-13 03:31 136 26.7
2020-Aug-13 03:16 136 27.2
2020-Aug-13 03:02 136 27.2
2020-Aug-13 02:46 136 27.2
2020-Aug-13 02:32 136 27.2
2020-Aug-13 02:17 134 27.2
2020-Aug-13 02:01 134 27.2
2020-Aug-13 01:46 129 27.2
2020-Aug-13 01:31 129 27.2
2020-Aug-13 01:16 118 27.2
2020-Aug-13 01:01 110 0 gusting 3 27.2
2020-Aug-13 00:46 126 0 gusting 1 27.2
2020-Aug-13 00:31 172 27.8
2020-Aug-13 00:17 111 27.8
2020-Aug-13 00:00 188 27.8
2020-Aug-12 23:47 131 27.8
2020-Aug-12 23:31 131 27.8
2020-Aug-12 23:16 139 28.3
2020-Aug-12 23:01 126 1 gusting 6 28.3
2020-Aug-12 22:46 169 0 gusting 2 28.3
2020-Aug-12 22:31 133 1 gusting 6 28.9
2020-Aug-12 22:16 116 0 gusting 5 28.9
2020-Aug-12 22:02 126 28.3
2020-Aug-12 21:46 015 1 gusting 5 28.3
2020-Aug-12 21:31 337 28.9
2020-Aug-12 18:00 186 28.9
2020-Aug-12 17:45 259 28.9
2020-Aug-12 17:30 129 28.3
2020-Aug-12 17:15 133 2 gusting 6 29.4
2020-Aug-12 17:00 288 1 gusting 6 29.4
2020-Aug-12 16:45 070 1 gusting 6 29.4
2020-Aug-12 16:30 358 3 gusting 6 30.0
2020-Aug-12 16:15 036 2 gusting 5 30.6
2020-Aug-12 16:00 289 0 gusting 4 30.6
2020-Aug-12 15:47 330 30.6
2020-Aug-12 15:32 030 0 gusting 3 30.0
2020-Aug-12 15:16 066 29.4
2020-Aug-12 15:01 343 0 gusting 2 29.4
2020-Aug-12 14:45 053 1 gusting 3 28.9
2020-Aug-12 14:32 059 28.9
2020-Aug-12 14:16 298 28.3
2020-Aug-12 14:01 058 27.8
2020-Aug-12 13:46 278 27.2
2020-Aug-12 13:30 041 26.7
2020-Aug-12 13:17 232 26.1
2020-Aug-12 13:01 291 26.1
2020-Aug-12 12:45 274 25.6
2020-Aug-12 12:30 159 25.6
2020-Aug-12 12:16 150 26.1
2020-Aug-12 12:01 231 26.1
2020-Aug-12 11:46 201 1 gusting 3 26.1
2020-Aug-12 11:30 198 0 gusting 2 26.7
2020-Aug-12 11:15 195 26.7
2020-Aug-12 11:01 200 0 gusting 1 26.1
2020-Aug-12 10:46 214 25.6
2020-Aug-12 10:30 259 25.0
2020-Aug-12 10:15 235 24.4
2020-Aug-12 10:01 185 24.4
2020-Aug-12 09:46 243 24.4
2020-Aug-12 09:30 247 25.0
2020-Aug-12 09:15 221 25.0
2020-Aug-12 09:00 221 25.0
2020-Aug-12 08:45 221 25.0
2020-Aug-12 08:30 229 25.0
2020-Aug-12 08:15 229 25.0
2020-Aug-12 08:00 229 25.0
2020-Aug-12 07:45 229 25.0
2020-Aug-12 07:31 238 25.0
2020-Aug-12 07:15 205 25.0
2020-Aug-12 07:01 195 25.0
2020-Aug-12 06:45 230 25.0
2020-Aug-12 06:30 230 25.0
2020-Aug-12 06:15 228 25.0
2020-Aug-12 06:00 228 25.6
2020-Aug-12 05:45 056 25.6
2020-Aug-12 05:30 186 26.1
2020-Aug-12 05:17 186 26.1
2020-Aug-12 05:01 186 26.1
2020-Aug-12 04:48 186 26.1
2020-Aug-12 04:31 186 26.7
2020-Aug-12 04:16 186 26.7
2020-Aug-12 04:01 186 26.7
2020-Aug-12 03:46 186 26.7
2020-Aug-12 03:30 157 27.2
2020-Aug-12 03:16 134 27.2
2020-Aug-12 03:02 124 27.2
2020-Aug-12 02:46 109 0 gusting 2 27.2
2020-Aug-12 02:32 127 27.2
2020-Aug-12 02:16 144 27.8
2020-Aug-12 02:01 159 27.8
2020-Aug-12 01:46 141 27.8
2020-Aug-12 01:31 130 0 gusting 4 27.8
2020-Aug-12 01:16 148 27.8
2020-Aug-12 01:00 098 27.8
2020-Aug-12 00:46 122 1 gusting 4 28.3
2020-Aug-12 00:31 122 0 gusting 4 28.3
2020-Aug-12 00:16 136 28.3
2020-Aug-12 00:00 139 28.3
2020-Aug-11 23:45 171 2 gusting 5 28.3
2020-Aug-11 23:30 134 2 gusting 6 28.9
2020-Aug-11 23:15 148 2 gusting 6 28.9
2020-Aug-11 23:00 090 3 gusting 6 28.9
2020-Aug-11 22:46 125 2 gusting 6 29.4
2020-Aug-11 22:31 124 0 gusting 6 30.0
2020-Aug-11 22:15 120 1 gusting 4 30.0
2020-Aug-11 21:46 173 3 gusting 6 30.6
2020-Aug-11 21:30 204 3 gusting 7 30.6
2020-Aug-11 21:15 149 4 gusting 9 31.1
2020-Aug-11 21:00 113 5 gusting 9 31.1
2020-Aug-11 20:46 122 3 gusting 9 32.2
2020-Aug-11 20:31 097 3 gusting 6 32.8
2020-Aug-11 20:15 095 5 gusting 11 32.8
2020-Aug-11 20:00 175 1 gusting 10 32.8
2020-Aug-11 19:45 117 3 gusting 7 32.8
2020-Aug-11 19:30 151 4 gusting 9 33.3
2020-Aug-11 19:15 182 3 gusting 9 33.3
2020-Aug-11 19:00 194 4 gusting 9 33.3
2020-Aug-11 18:45 143 5 gusting 11 33.3
2020-Aug-11 18:30 150 1 gusting 11 33.3
2020-Aug-11 18:15 166 3 gusting 9 33.3
2020-Aug-11 18:00 180 4 gusting 10 33.3